Weather Roundup
Issued by NWS

Home | Current Version | Previous Version | Text Only | Print | Product List | Glossary On
Versions: 1 2 3 4 5 6 7 8 9 10 11 12 13 14 15 16 17 18 19 20 21 22 23 24 25 26 27 28 29 30 31 32 33 34 35 36 37 38 39 40 41 42 43 44 45 46 47 48 49 50
000
NZUS93 KARX 232010
HRRWXR

CURRENT HOURLY OBSERVATIONS ACROSS
MUCH OF THE UPPER MISSISSIPPI VALLEY
NATIONAL WEATHER SERVICE LA CROSSE WI
300 PM CDT SAT MAY 23 2015


...SOUTHEAST MINNESOTA...


CITY           SKY/WX    TMP DP  RH WIND       PRES   REMARKS
ROCHESTER      PTSUNNY   75  40  28 S10       30.21F
ROCHESTER/MAYO FAIR      73  42  32 E6        30.21F
WINONA         MOSUNNY   73  45  35 NE3       30.21F
AUSTIN         PTSUNNY   72  45  37 S10       30.20S
ALBERT LEA     PTSUNNY   73  39  29 SE10      30.19F
DODGE CENTER   MOSUNNY   75  41  29 SE13      30.20F
PRESTON        CLOUDY    73  40  29 S12       30.21F
OWATONNA       PTSUNNY   73  39  29 SE5       30.20S
FARIBAULT      PTSUNNY   72  43  35 SE6       30.21S
$$

...ELSEWHERE IN MINNESOTA...


CITY           SKY/WX    TMP DP  RH WIND       PRES   REMARKS
MINNEAPOLIS    CLOUDY    73  41  31 VRB3      30.21F
INTNL FALLS    MOSUNNY   79  35  20 SW12G17   30.12F
DULUTH         MOSUNNY   76  33  21 VRB6G20   30.17F
RED WING       PTSUNNY   75  39  27 SE7       30.20S
REDWOOD FALLS  CLOUDY    69  48  47 SE14      30.18F
MANKATO        CLOUDY    72  43  35 SE13      30.20S
WORTHINGTON    CLOUDY    68  43  40 S14       30.16F
FAIRMONT       CLOUDY    72  41  33 S21       30.17S
$$

...SOUTHWEST WISCONSIN...


CITY           SKY/WX    TMP DP  RH WIND       PRES   REMARKS
LA CROSSE      MOSUNNY   78  40  25 S10       30.20F
PRAIRIE DU CHI MOSUNNY   78  38  24 E3        30.21F
BOSCOBEL       MOSUNNY   81  40  23 VRB7      30.21F
LONE ROCK      MOSUNNY   79  40  24 CALM      30.21F
PLATTEVILLE    MOSUNNY   78  43  29 S9        30.24S
FORT MC COY    MOSUNNY   78  37  22 S6        30.22S
CAMP DOUGLAS   PTSUNNY   77  41  27 S9        30.21F
VIROQUA        FAIR      76  41  28 S8        30.23F
WIS DELLS      MOSUNNY   78  37  23 SW9       30.22F
$$

...ELSEWHERE IN WISCONSIN...


CITY           SKY/WX    TMP DP  RH WIND       PRES   REMARKS
MILWAUKEE      MOSUNNY   71  41  33 SE14      30.26F
MADISON        MOSUNNY   77  39  25 SW8       30.23F
GREEN BAY      MOSUNNY   76  38  25 S8        30.23F
EAU CLAIRE     PTSUNNY   73  41  31 S3        30.21F
BLACK RVR FLS  FAIR      76  37  24 W8        30.21S
MEDFORD        PTSUNNY   72  40  31 S10       30.23F
WAUSAU         PTSUNNY   74  39  28 SW6       30.21F
WIS RAPIDS     PTSUNNY   78  32  18 S12       30.23F
MARSHFIELD     PTSUNNY   76  39  26 W6        30.22F
RICE LAKE      PTSUNNY   70  32  24 SW5       30.25S
$$

...NORTHEAST IOWA...


CITY           SKY/WX    TMP DP  RH WIND       PRES   REMARKS
DECORAH        MOSUNNY   77  39  25 S12G18    30.20F
MASON CITY     PTSUNNY   75  46  35 S18G28    30.19F
CHARLES CITY   MOSUNNY   77  41  27 S13G20    30.20F
OELWEIN        MOSUNNY   75  43  31 S15G22    30.22S
$$

...ELSEWHERE IN IOWA...


CITY           SKY/WX    TMP DP  RH WIND       PRES   REMARKS
DES MOINES     PTSUNNY   73  49  42 SE16      30.17F
IOWA CITY      PTSUNNY   75  49  39 S13       30.23F
FORT DODGE     CLOUDY    70  46  43 S12G20    30.18F
$$

...NORTHERN ILLINOIS...


CITY           SKY/WX    TMP DP  RH WIND       PRES   REMARKS
CHICAGO-OHARE  MOSUNNY   78  39  24 SW7       30.25F
CHICAGO-MIDWAY PTSUNNY   81  42  25 CALM      30.25F
MOLINE         MOSUNNY   79  48  33 S12       30.22F
ROCKFORD       MOSUNNY   79  44  28 S10G16    30.25F
PEORIA         MOSUNNY   81  50  33 S14       30.24F
$$

NOTE: "FAIR" INDICATES FEW OR NO CLOUDS BELOW 12,000 FEET WITH NO
SIGNIFICANT WEATHER AND/OR OBSTRUCTIONS TO VISIBILITY. WIND
SPEEDS ARE IN MILES-PER-HOUR.



USA.gov is the U.S. government's official web portal to all federal, state and local government web resources and services.